Wind_Speed
18 39 43 44 37 34 32 34 37 36 33 30 35 27 31 33 29 27 27 28 30 31 28 26 26 24 22 23 24 24 24 23 22 22 22 24 28 23 23 18 21 22 27
16 27 43 46 46 40 36 36 37 38 37 36 32 33 33 30 34 32 29 28 32 31 29 26 29 28 29 29 26 24 27 23 22 24 26 22 21 22 21 23 25 23 17
16 12 32 48 50 44 39 33 36 40 39 39 39 36 31 35 31 34 33 30 31 31 32 33 33 31 30 28 28 26 23 23 22 21 25 27 24 25 23 29 28 27 31
26 18 13 31 48 47 44 39 33 37 41 42 41 42 41 34 38 35 34 33 30 30 30 31 33 32 29 29 27 26 22 21 24 25 24 24 26 25 28 27 30 29 27
29 24 19 12 24 39 43 43 37 36 38 40 42 43 45 45 40 41 41 38 35 34 33 33 32 32 31 31 29 26 25 22 24 22 21 23 26 22 24 25 27 28 27
33 30 25 22 19 25 36 44 44 44 40 38 41 41 43 47 49 46 43 42 41 40 40 37 33 32 32 33 30 27 28 27 24 24 24 19 25 22 22 28 28 28 32
36 34 30 28 26 26 25 38 49 46 44 41 40 42 42 41 44 46 46 43 43 41 37 36 35 34 34 33 32 34 34 32 26 27 30 26 25 21 23 28 26 26 27
39 38 34 31 28 27 28 30 42 46 50 42 40 46 43 41 39 39 41 40 41 41 40 40 38 37 35 34 33 32 33 33 29 29 28 26 23 21 26 27 26 27 25
41 38 37 33 31 29 31 34 33 37 43 42 39 43 39 43 40 40 39 40 42 43 44 43 36 38 39 36 31 32 33 32 27 26 30 28 23 26 29 26 23 23 22
42 40 39 38 35 34 33 33 36 32 34 34 38 42 37 29 36 37 35 33 38 41 39 35 38 42 41 39 38 36 35 38 34 34 34 32 30 29 21 23 21 17 19
41 44 43 40 37 37 36 32 34 34 33 30 32 33 28 30 39 31 35 38 38 38 34 28 40 41 39 42 43 43 39 33 31 29 30 31 30 25 23 22 21 20 21
44 48 44 38 34 34 31 29 32 32 29 30 25 26 27 31 35 35 33 36 26 31 35 34 33 37 41 45 51 46 39 35 31 26 28 29 28 24 21 22 23 22 18
47 46 38 33 29 27 28 29 28 32 29 31 31 30 30 26 24 24 24 22 23 20 16 13 6 11 23 6 8 23 23 26 29 27 26 26 27 22 19 21 13 10 9
42 37 29 24 21 24 24 25 23 27 28 27 25 27 24 17 14 13 11 4 3 5 11 20 20 22 22 21 22 23 19 19 17 19 21 19 20 20 21 14 10 9 6
34 27 21 19 19 24 22 20 18 18 26 25 17 15 13 12 11 12 13 11 9 9 10 8 7 6 9 17 13 18 20 20 17 18 19 20 19 21 13 11 9 9 7
17 14 19 18 17 20 20 20 15 16 16 10 9 7 10 9 7 7 9 8 7 6 7 6 6 7 8 9 13 14 15 17 17 19 19 19 18 19 15 12 10 8 9
5 11 8 16 14 12 17 17 21 16 14 13 13 12 13 13 9 7 6 4 2 0 2 5 6 7 10 9 7 7 5 3 9 9 12 12 9 10 12 6 8 7 7
25 31 30 23 20 19 17 15 15 13 17 15 13 13 12 10 11 13 14 14 12 10 9 11 7 6 8 9 7 4 4 4 3 6 3 2 6 2 2 1 4 3 3
36 37 37 38 37 36 30 25 21 18 18 15 20 20 18 15 14 13 10 11 11 9 7 5 4 5 5 1 2 3 4 3 2 2 4 4 5 3 7 7 5 7 7
26 28 28 35 38 37 37 39 37 29 19 17 13 16 12 11 12 12 10 7 5 5 2 3 4 5 4 2 2 5 4 4 5 6 7 6 7 8 9 10 7 7 5
23 25 24 32 30 30 32 30 27 15 19 18 15 7 13 9 8 7 8 7 7 6 7 7 4 7 5 6 6 5 3 4 5 3 3 6 4 5 8 8 7 9 9
30 15 12 19 26 32 24 13 17 15 16 10 14 13 13 12 10 8 7 6 2 4 6 6 5 7 3 9 12 13 11 8 6 7 6 4 3 5 7 11 10 9 9
6 17 17 19 17 11 13 13 10 10 7 6 10 9 9 12 12 8 5 7 6 4 4 6 6 8 8 7 7 5 13 15 14 13 14 15 15 11 10 10 12 11 10
11 9 12 14 13 12 13 12 12 11 10 10 10 11 10 6 7 9 9 8 6 6 5 3 2 5 5 8 10 8 8 7 9 14 9 11 12 16 13 15 16 18 17
8 8 8 10 10 10 10 10 8 8 7 9 10 8 7 7 7 5 5 6 5 4 2 2 4 7 10 11 9 5 2 4 2 3 3 7 10 12 10 18 16 19 8
9 9 10 9 10 9 8 7 11 9 9 9 9 14 14 11 13 9 8 5 4 5 5 7 7 8 9 9 8 8 8 7 6 6 6 7 7 9 12 15 27 28 29
Wind_Direction
281 241 237 240 237 235 235 233 231 228 229 234 238 243 246 244 245 245 252 252 241 240 242 246 256 265 266 268 267 270 262 270 284 289 296 289 294 304 310 319 320 323 323
345 254 250 240 241 237 237 238 232 230 230 229 236 245 246 242 243 245 251 253 245 239 238 247 256 255 257 265 271 269 265 270 275 286 286 292 300 309 312 314 321 314 313
324 325 237 237 241 241 242 243 236 233 232 232 231 238 244 243 241 245 252 257 250 246 242 244 252 261 265 267 268 271 278 269 271 275 286 292 299 304 306 312 312 305 305
335 324 276 242 242 247 245 245 243 237 235 235 234 235 239 244 245 246 249 252 252 252 252 251 252 253 255 260 261 262 270 274 267 272 278 289 299 309 304 306 309 316 322
332 326 309 269 251 247 248 248 250 248 240 236 237 238 238 239 242 245 248 249 251 253 257 259 252 248 254 254 257 257 265 273 268 267 274 283 293 307 314 314 312 315 322
322 325 315 297 275 255 249 245 246 248 245 240 236 237 238 237 239 243 247 249 253 255 256 257 254 252 253 256 257 259 257 261 263 258 259 272 286 287 305 309 308 314 321
314 316 318 308 291 275 269 246 243 245 249 243 238 239 240 242 242 243 247 248 253 256 258 254 255 255 255 255 252 253 259 259 261 262 263 274 280 282 298 306 305 309 312
309 308 310 312 304 286 271 264 251 246 243 244 245 243 243 246 249 248 247 245 249 253 257 258 257 259 259 256 262 253 252 261 265 260 269 266 272 276 290 294 297 300 305
303 300 301 304 299 297 279 265 266 254 250 247 257 249 245 245 250 253 253 252 253 253 254 256 260 260 259 256 256 254 251 260 260 259 271 268 269 279 283 279 286 294 305
298 294 294 292 289 288 288 276 264 266 261 260 252 244 243 257 252 250 254 263 267 261 253 258 262 262 265 260 257 251 255 260 267 266 268 271 270 275 266 272 278 277 303
292 292 291 289 285 281 284 278 271 263 261 254 262 266 255 255 259 249 270 273 293 277 255 276 267 261 258 259 257 255 254 258 257 260 264 265 258 257 260 263 272 288 296
290 288 288 284 280 281 279 276 265 261 256 246 249 259 259 255 258 264 262 265 275 268 274 270 262 261 260 257 253 246 245 248 252 254 257 256 255 254 251 263 271 280 286
290 285 282 278 278 276 274 273 260 254 256 247 252 251 252 255 254 254 260 270 268 266 273 247 239 254 236 243 353 213 217 241 249 255 254 253 254 247 244 252 263 266 258
292 287 274 267 279 274 276 275 268 245 240 236 237 242 245 231 251 261 245 202 213 245 240 238 260 280 278 268 257 241 232 249 254 249 250 249 239 230 236 235 229 219 204
288 278 261 258 267 278 267 268 273 254 241 235 205 213 221 222 218 225 237 240 244 246 237 253 274 295 259 254 247 235 228 233 253 254 246 235 227 226 198 201 208 203 209
287 271 266 253 256 253 241 240 241 225 213 203 205 198 199 197 193 206 204 202 218 231 241 243 267 278 266 267 254 249 250 250 248 242 235 233 224 195 186 182 225 233 220
59 101 212 246 218 161 163 169 161 148 146 152 147 143 147 154 161 158 162 189 188 268 300 279 288 297 260 251 210 205 203 142 192 172 160 158 147 149 159 197 252 235 228
56 76 80 88 113 152 134 121 124 141 148 155 159 156 143 132 121 112 106 95 90 94 77 81 95 109 111 112 113 130 105 97 56 6 293 179 158 115 41 277 210 215 274
40 55 62 66 69 80 99 109 96 80 71 96 114 115 115 113 112 109 100 94 82 65 56 58 45 56 78 116 186 202 201 191 270 262 229 219 221 227 235 221 221 220 218
42 41 48 67 64 64 57 65 64 54 57 50 82 97 101 98 82 72 65 82 102 49 75 42 25 25 46 52 285 275 272 258 231 239 234 233 231 237 209 194 199 218 223
36 46 44 46 60 64 56 53 60 57 53 52 54 88 81 53 117 85 74 77 60 56 63 66 21 280 293 303 288 281 237 242 230 238 243 218 243 239 198 209 221 225 223
34 46 30 43 47 58 60 83 73 65 63 50 47 58 66 68 69 65 61 24 355 357 15 4 31 34 3 300 290 280 271 255 255 251 253 231 250 281 263 242 236 236 237
334 33 56 58 64 75 89 65 40 55 76 84 76 65 62 50 51 36 57 55 66 36 5 2 5 17 17 327 324 333 262 257 251 257 239 237 244 260 256 229 229 243 241
64 51 41 60 55 59 58 63 54 49 51 47 59 54 44 36 38 48 27 19 14 352 8 36 312 321 350 1 25 30 7 328 290 279 235 223 233 236 238 254 246 254 251
64 44 51 43 43 59 59 49 51 30 66 54 23 16 21 19 9 33 66 69 63 81 65 343 310 319 326 327 341 20 89 93 23 11 351 326 270 249 241 221 244 243 225
43 33 23 26 44 25 32 38 9 55 46 44 62 56 57 47 52 45 38 15 354 355 346 324 324 316 312 310 310 315 316 327 339 328 315 299 294 278 273 276 259 247 256
Height
1529 1526 1524 1529 1532 1535 1536 1540 1543 1548 1551 1552 1553 1554 1556 1557 1559 1560 1561 1563 1565 1567 1569 1570 1571 1573 1573 1573 1574 1573 1572 1571 1568 1567 1567 1566 1565 1563 1561 1558 1555 1552 1549
1519 1517 1519 1521 1525 1528 1529 1532 1535 1538 1542 1545 1546 1547 1549 1550 1553 1554 1555 1556 1557 1559 1562 1565 1566 1567 1567 1568 1568 1567 1567 1567 1566 1563 1562 1561 1560 1559 1556 1553 1551 1547 1544
1516 1515 1515 1517 1520 1520 1521 1524 1526 1529 1532 1535 1538 1539 1541 1543 1545 1547 1548 1550 1551 1552 1555 1557 1558 1559 1560 1560 1560 1560 1561 1561 1561 1559 1557 1557 1555 1553 1550 1548 1545 1543 1540
1516 1513 1511 1512 1514 1516 1514 1515 1517 1519 1521 1524 1526 1530 1532 1534 1536 1538 1540 1543 1545 1547 1548 1549 1549 1551 1551 1552 1553 1553 1554 1554 1554 1554 1554 1553 1551 1549 1546 1542 1538 1536 1532
1514 1511 1509 1507 1509 1510 1511 1512 1508 1509 1511 1512 1515 1518 1522 1524 1526 1527 1530 1533 1535 1538 1540 1541 1542 1542 1543 1545 1546 1547 1547 1546 1547 1548 1549 1547 1544 1542 1541 1538 1534 1531 1529
1509 1507 1505 1503 1501 1502 1500 1500 1503 1497 1497 1501 1502 1505 1508 1512 1515 1518 1520 1523 1525 1528 1530 1533 1534 1536 1536 1537 1538 1538 1538 1539 1540 1539 1538 1537 1535 1536 1535 1534 1530 1526 1522
1501 1500 1498 1496 1493 1492 1491 1488 1487 1491 1492 1488 1488 1495 1498 1501 1506 1510 1513 1516 1517 1519 1521 1523 1526 1528 1528 1528 1529 1530 1530 1531 1532 1532 1530 1530 1530 1530 1531 1528 1526 1524 1521
1495 1492 1490 1488 1485 1483 1482 1478 1480 1480 1456 1487 1483 1487 1490 1492 1497 1501 1504 1507 1507 1509 1513 1516 1518 1519 1520 1521 1521 1521 1522 1524 1524 1524 1523 1525 1525 1526 1525 1523 1521 1519 1518
1491 1487 1483 1481 1478 1476 1473 1470 1469 1476 1476 1476 1470 1448 1480 1484 1487 1493 1496 1496 1499 1501 1504 1507 1509 1510 1511 1514 1514 1514 1514 1515 1518 1518 1519 1519 1519 1519 1519 1517 1517 1516 1512
1484 1480 1476 1473 1471 1468 1465 1462 1460 1460 1461 1463 1467 1463 1465 1464 1479 1482 1487 1491 1493 1493 1494 1496 1499 1500 1500 1500 1504 1505 1506 1506 1509 1511 1510 1511 1512 1512 1513 1512 1511 1511 1508
1475 1472 1467 1464 1461 1459 1456 1454 1453 1455 1457 1459 1458 1454 1462 1459 1469 1471 1477 1481 1480 1477 1459 1475 1484 1489 1490 1491 1494 1494 1494 1497 1499 1501 1504 1504 1503 1506 1507 1506 1505 1505 1503
1464 1460 1457 1454 1452 1450 1448 1446 1446 1448 1450 1452 1453 1454 1455 1459 1463 1465 1469 1469 1472 1465 1466 1468 1472 1475 1477 1477 1477 1478 1483 1487 1489 1490 1493 1496 1497 1498 1500 1500 1499 1499 1498
1451 1447 1445 1443 1442 1441 1440 1439 1439 1440 1442 1444 1446 1447 1450 1453 1456 1458 1462 1464 1463 1460 1458 1464 1464 1462 1468 1469 1460 1462 1464 1478 1479 1479 1482 1486 1489 1491 1492 1493 1494 1494 1495
1440 1436 1435 1435 1435 1435 1433 1432 1431 1434 1436 1438 1440 1442 1445 1447 1449 1452 1454 1454 1454 1455 1456 1462 1462 1461 1462 1461 1460 1463 1465 1471 1471 1468 1473 1476 1482 1482 1483 1487 1487 1489 1489
1432 1428 1427 1428 1428 1428 1428 1427 1427 1428 1429 1429 1433 1438 1442 1444 1447 1450 1453 1452 1452 1452 1456 1457 1457 1454 1454 1458 1460 1461 1462 1466 1466 1465 1468 1470 1472 1473 1474 1479 1481 1482 1484
1425 1422 1421 1422 1421 1422 1422 1422 1424 1426 1428 1431 1432 1435 1438 1441 1443 1444 1446 1448 1452 1451 1453 1450 1450 1451 1452 1454 1455 1457 1458 1460 1459 1462 1462 1465 1468 1469 1470 1472 1479 1478 1479
1424 1419 1417 1417 1419 1418 1418 1419 1420 1423 1426 1430 1433 1435 1438 1440 1442 1443 1445 1447 1447 1447 1448 1448 1449 1450 1449 1450 1450 1453 1454 1455 1455 1455 1458 1458 1459 1462 1464 1469 1474 1476 1477
1423 1420 1417 1417 1416 1416 1417 1422 1424 1428 1427 1430 1433 1434 1437 1440 1441 1442 1444 1445 1447 1449 1448 1448 1450 1450 1450 1450 1451 1453 1451 1453 1455 1457 1456 1456 1460 1462 1463 1465 1469 1472 1475
1434 1429 1426 1420 1415 1414 1415 1420 1426 1431 1432 1437 1434 1436 1439 1441 1443 1443 1445 1445 1447 1448 1450 1452 1453 1453 1452 1453 1454 1455 1455 1455 1457 1457 1458 1460 1462 1464 1468 1471 1471 1472 1474
1444 1442 1440 1431 1427 1426 1422 1421 1429 1441 1445 1445 1439 1437 1443 1446 1446 1446 1448 1449 1451 1452 1453 1453 1454 1454 1454 1455 1456 1456 1455 1455 1456 1458 1460 1463 1463 1464 1465 1467 1468 1471 1472
1452 1450 1447 1438 1434 1431 1433 1433 1440 1449 1449 1450 1449 1449 1449 1449 1448 1451 1452 1453 1454 1454 1454 1453 1452 1454 1456 1457 1458 1457 1455 1455 1456 1457 1457 1459 1460 1463 1465 1467 1468 1469 1470
1459 1453 1453 1450 1446 1446 1445 1449 1450 1454 1456 1458 1456 1456 1456 1453 1452 1453 1454 1455 1454 1454 1454 1454 1454 1453 1454 1456 1456 1457 1457 1457 1456 1457 1457 1458 1460 1461 1463 1464 1466 1467 1468
1460 1459 1460 1456 1455 1454 1454 1456 1457 1462 1459 1458 1458 1459 1458 1455 1452 1455 1457 1456 1456 1456 1455 1455 1453 1452 1453 1454 1455 1454 1454 1454 1453 1455 1455 1456 1458 1460 1461 1462 1465 1465 1464
1467 1467 1464 1463 1462 1462 1460 1459 1461 1463 1460 1461 1460 1458 1459 1458 1457 1455 1455 1456 1457 1457 1454 1451 1450 1451 1453 1453 1451 1453 1453 1452 1453 1454 1454 1453 1455 1458 1458 1460 1460 1460 1460
1471 1469 1468 1467 1466 1467 1466 1464 1464 1465 1465 1463 1462 1460 1458 1458 1458 1455 1454 1456 1456 1455 1455 1453 1452 1452 1452 1451 1451 1452 1452 1452 1453 1452 1452 1453 1453 1452 1455 1452 1456 1453 1455
1471 1471 1471 1470 1469 1468 1468 1467 1467 1466 1464 1462 1461 1460 1458 1458 1458 1456 1456 1456 1456 1455 1454 1453 1452 1451 1452 1453 1452 1450 1450 1450 1450 1451 1451 1451 1450 1449 1450 1450 1450 1450 1451